Voltar ao catálogo

DELTA 1 DEB

AtivoSSO
NORAD 18645·DEBRIS·🇺🇸 United States

Lançado Nov 6, 1973 de Vandenberg Space Force Base

Loading…

Próximas Passagens (próximas 24 horas)

TLE

AtualizadoSource: Space-Track

Época: Sep 14, 2026, 08:28 UTC

1 18645U 73086GX  26257.35331622 -.00000025  00000-0  16353-3 0  9994
2 18645 102.3193  29.5999 0119410 276.5312 107.2853 12.37427376874995

Acompanhe DELTA 1 DEB em tempo real com AllMySat

Download on the App Store